Regional Weather Roundup
Issued by NWS Northern Indiana

Home | Current Version | Previous Version | Text Only | Print | Product List | Glossary Off
Versions: 1 2 3 4 5 6 7 8 9 10 11 12 13 14 15 16 17 18 19 20 21 22 23 24 25 26 27 28 29 30 31 32 33 34 35 36 37 38 39 40 41 42 43 44 45 46 47 48 49 50

000
ASUS43 KIWX 312310
RWRIWX

KIWX WEATHER ROUNDUP
NATIONAL WEATHER SERVICE NORTHERN INDIANA
700 PM EDT MON AUG 31 2015

NOTE: "FAIR" INDICATES FEW OR NO CLOUDS BELOW 12,000 FEET WITH NO
SIGNIFICANT WEATHER AND/OR OBSTRUCTIONS TO VISIBILITY.

* THESE STATIONS ARE NOT UNDER NWS QUALITY CONTROL. THEY ALSO MAY NOT
  REPORT WEATHER SUCH AS PRECIPITATION OR FOG.

INZ001>027-010000-
NORTHERN INDIANA

CITY           SKY/WX    TMP DP  RH WIND       PRES   REMARKS
GARY*          MOSUNNY   82  68  61 CALM      30.02S
VALPARAISO     SUNNY     84  69  60 CALM      30.03S
MICHIGAN CITY* SUNNY     79  70  73 CALM      30.04S
LAPORTE*       SUNNY     84  70  62 CALM      30.04S
KNOX*          SUNNY     82  64  54 SW5       30.02S
SOUTH BEND     SUNNY     83  68  60 CALM      30.04S
ELKHART*       SUNNY     82  68  61 CALM      30.05R
GOSHEN         SUNNY     83  70  64 NW5       30.04S
MONTICELLO*    MOSUNNY   84  71  64 SW8       30.03R
LOGANSPORT*    MOSUNNY   82  61  47 SW6       30.05S
ROCHESTER*     SUNNY     86  68  54 SW5       30.05R
WARSAW*        SUNNY     82  68  61 W3        30.04S
ANGOLA*        SUNNY     84  72  65 CALM      30.05S
FORT WAYNE     MOSUNNY   84  69  60 SW6       30.05S
HUNTINGTON*    SUNNY     83  64  52 SW3       30.04S
PERU/GRISSOM   MOSUNNY   85  67  56 W7        30.03F
MARION*        PTSUNNY   83  58  41 CALM      30.06R

$$
INZ028>050-010000-
CENTRAL INDIANA

CITY           SKY/WX    TMP DP  RH WIND       PRES   REMARKS
LAFAYETTE      SUNNY     84  66  54 SW6       30.03S
KOKOMO*        MOSUNNY   84  66  54 W8        30.04S
MUNCIE*        PTSUNNY   82  66  58 SW5       30.06R THUNDER
INDIANAPOLIS   MOSUNNY   83  66  56 SW10      30.05S

$$
MIZ043>046-050>051-056>058-064>065-071>073-077>080-010000-
SOUTHWEST LOWER MICHIGAN

CITY           SKY/WX    TMP DP  RH WIND       PRES   REMARKS
BATTLE CREEK   SUNNY     81  68  64 W5        30.06S
BENTON HARBOR  SUNNY     78  67  68 CALM      30.03F
COLDWATER*     SUNNY     82  67  62 NW3       30.05S
HILLSDALE*     SUNNY     82  66  57 W6        30.07R
HOLLAND        SUNNY     76  66  71 W5        30.05S
GRAND RAPIDS   SUNNY     80  67  64 W5        30.05R
KALAMAZOO      SUNNY     81  66  60 W6        30.06R
STURGIS*       SUNNY     81  70  69 NW3       30.05R
THREE RIVERS*  FAIR      82  69  64 NW6       30.05S

$$
OHZ001>008-015>018-024>025-010000-
NORTHWEST OHIO

CITY           SKY/WX    TMP DP  RH WIND       PRES   REMARKS
WAUSEON*       FAIR      82  72  69 CALM      30.05R
DEFIANCE       SUNNY     85  68  56 NW3       30.04S
FINDLAY        SUNNY     83  70  64 SW5       30.04S
TOLEDO EXPRESS SUNNY     84  67  56 SW5       30.03S
TOLEDO METCALF SUNNY     85  66  53 W8        30.04S
LIMA           MOSUNNY   83  68  60 SW5       30.06S

$$
AND FOR LAKE MICHIGAN COASTAL AND OPEN LAKE BUOY OBSERVATIONS

STATION/POSITION TEMP    WIND        PRES    VSBY  WAVE
                 AIR SEA DIR/SP/G                  HT/PER
                 (F)     (DEG/KT/KT) (MB)    (MI)  (FT/S)
CALUMET HARBOR    75      40/  4/  5   N/A
MICHIGAN CITY     73      40/  8/  9   N/A
BURNS HARBOR      75      80/ 10/ 11 1016.9F
SAINT JOSEPH      77     360/  2/  4 1017.3F
SOUTH LAKE BUOY   70 71  130/  4/  6 1016.4F         0
4 MI NW BRIDGMAN  73 73  100/  6/  8   N/A           0
MICHIGAN CITY     74 73   90/  8/  8   N/A           0

$$
&&


USA.gov is the U.S. government's official web portal to all federal, state and local government web resources and services.